Location: Coleto Creek Park and Reservoir
(28.7196°N, 97.1740°W)
Time: 13:24:59

N. Korean satellite - Visible Passes

Search period start: 17 March 2018 00:00
Search period end: 27 March 2018 00:00
Orbit: 460 x 512 km, 97.2° (Epoch: 17 March)

Date Brightness Start Highest point End Pass type
(mag) Time Alt. Az. Time Alt. Az. Time Alt. Az.
17 Mar 9.6 20:09:32 10° SSW 20:12:22 22° W 20:15:16 10° NW visible
20 Mar 10.4 20:33:36 10° WSW 20:34:31 11° W 20:35:27 10° WNW visible
21 Mar 9.5 20:07:38 10° SSW 20:10:34 23° W 20:13:34 10° NW visible
24 Mar 10.2 20:31:23 10° WSW 20:32:41 12° W 20:33:59 10° WNW visible
25 Mar 9.4 20:05:41 10° SSW 20:08:44 25° W 20:11:49 10° NW visible
